CDT,Max TemperatureF,Mean TemperatureF,Min TemperatureF,Max Dew PointF,MeanDew PointF,Min DewpointF,Max Humidity, Mean Humidity, Min Humidity, Max Sea Level PressureIn, Mean Sea Level PressureIn, Min Sea Level PressureIn, Max VisibilityMiles, Mean VisibilityMiles, Min VisibilityMiles, Max Wind SpeedMPH, Mean Wind SpeedMPH, Max Gust SpeedMPH,PrecipitationIn, CloudCover, Events, WindDirDegrees
2012-9-1,84,78,72,75,73,71,100,87,74,30.04,29.94,29.85,10,6,0,18,10,24,3.05,7,Rain-Thunderstorm,118
2012-9-2,77,75,72,75,73,70,100,94,88,29.87,29.81,29.75,10,7,1,18,11,23,0.14,7,Rain,71
2012-9-3,86,79,71,72,71,69,93,77,61,29.90,29.86,29.83,10,9,2,14,7,18,0.02,5,Rain,46
2012-9-4,91,79,67,73,70,66,100,75,49,29.91,29.87,29.84,10,9,5,10,2,15,0.00,1,,273
2012-9-5,81,74,66,69,66,61,93,78,62,29.94,29.86,29.75,10,10,7,26,8,35,0.10,2,Rain,102
2012-9-6,88,77,65,72,67,61,100,72,43,29.97,29.92,29.87,10,6,0,9,4,15,0.00,2,Fog,265
2012-9-7,76,69,61,70,65,60,93,83,73,29.92,29.81,29.72,10,7,1,23,8,36,0.91,5,Rain-Thunderstorm,30
2012-9-8,72,63,53,61,52,48,100,72,44,29.96,29.91,29.83,10,10,9,17,10,25,0.00,1,,304
2012-9-9,74,64,54,55,53,50,93,70,46,30.16,30.02,29.87,10,10,10,18,9,25,0.00,4,,344
2012-9-10,79,64,48,55,49,44,100,66,31,30.24,30.17,30.13,10,10,10,9,4,,0.00,0,,109
2012-9-11,84,68,51,56,53,49,89,62,34,30.22,30.16,30.12,10,10,10,16,8,21,0.00,0,,163
2012-9-12,87,72,57,59,56,53,86,59,31,30.22,30.17,30.12,10,10,10,17,8,23,0.00,1,,182
2012-9-13,86,73,59,61,56,52,84,61,37,30.28,30.22,30.16,10,10,10,21,8,29,0.00,6,,200
2012-9-14,73,63,52,56,52,48,93,67,41,30.36,30.31,30.27,10,9,2,16,6,22,0.29,4,Rain,22
2012-9-15,77,63,49,52,48,42,93,62,31,30.34,30.26,30.17,10,10,10,9,3,13,0.00,0,,70
2012-9-16,80,65,49,54,50,47,89,61,32,30.16,30.08,30.00,10,10,10,13,6,16,0.00,0,,157
2012-9-17,79,67,54,64,60,53,100,76,52,29.99,29.89,29.77,10,6,2,21,4,26,0.14,6,Rain-Thunderstorm,227
2012-9-18,65,53,41,57,46,35,93,64,34,30.08,29.90,29.79,10,10,7,23,11,30,0.00,4,,323
2012-9-19,74,56,38,44,39,36,92,60,28,30.15,30.06,29.95,10,10,10,22,11,29,0.00,0,,191
2012-9-20,77,62,47,52,43,35,83,53,23,29.98,29.94,29.91,10,10,10,16,8,24,0.00,0,,248
2012-9-21,79,62,45,55,48,36,96,59,21,29.99,29.84,29.72,10,8,0,26,8,35,0.98,4,Fog-Rain-Thunderstorm,98
2012-9-22,61,51,40,52,42,30,100,68,36,30.21,30.00,29.84,10,6,0,29,10,37,0.00,2,Fog,280
2012-9-23,65,51,37,42,35,30,93,61,28,30.30,30.26,30.22,10,10,10,16,6,23,0.00,1,,321
2012-9-24,71,53,34,43,35,30,92,59,25,30.27,30.15,29.99,10,10,8,21,9,32,0.00,0,,197
2012-9-25,71,63,55,65,58,44,100,79,57,29.97,29.91,29.87,10,8,2,22,10,28,0.27,6,Rain-Thunderstorm,185
2012-9-26,73,66,59,65,62,52,93,83,72,30.11,30.01,29.91,10,10,7,22,8,26,0.04,7,Rain,201
2012-9-27,75,66,56,53,49,43,80,62,43,30.19,30.14,30.10,10,10,10,15,8,22,0.00,3,,22
2012-9-28,73,62,50,50,49,46,89,67,44,30.17,30.13,30.07,10,10,10,16,9,21,0.00,1,,358
2012-9-29,77,62,46,51,47,42,93,61,29,30.14,30.06,29.95,10,10,5,12,6,,0.00,0,,333
2012-9-30,73,61,48,49,45,41,86,60,34,29.95,29.92,29.88,10,10,10,16,10,22,0.00,0,,20